date,time,SUV Intensity [MED/Hr],UV Index,Daily total [MED],Since Last [MED]
02/06/2023,00:02:28,0.000,0.0,0.0,0.0
02/06/2023,00:03:29,-0.001,0.0,0.0,0.0
02/06/2023,00:04:29,-0.001,0.0,0.0,0.0
02/06/2023,00:05:28,0.000,0.0,0.0,0.0
02/06/2023,00:06:29,-0.002,0.0,0.0,0.0
02/06/2023,00:07:29,0.000,0.0,0.0,0.0
02/06/2023,00:08:28,0.000,0.0,0.0,0.0
02/06/2023,00:09:29,-0.000,0.0,0.0,0.0
02/06/2023,00:10:29,0.000,0.0,0.0,0.0
02/06/2023,00:11:28,-0.000,0.0,0.0,0.0
02/06/2023,00:12:29,-0.001,0.0,0.0,0.0
02/06/2023,00:13:28,0.000,0.0,0.0,0.0
02/06/2023,00:14:29,0.000,0.0,0.0,0.0
02/06/2023,00:15:29,0.001,0.0,0.0,0.0
02/06/2023,00:16:29,0.000,0.0,0.0,0.0
02/06/2023,00:17:29,0.000,0.0,0.0,0.0
02/06/2023,00:18:28,-0.001,0.0,0.0,0.0
02/06/2023,00:19:28,0.000,0.0,0.0,0.0
02/06/2023,00:20:28,0.000,0.0,0.0,0.0
02/06/2023,00:21:29,0.000,0.0,0.0,0.0
02/06/2023,00:22:29,0.000,0.0,0.0,0.0
02/06/2023,00:23:29,0.000,0.0,0.0,0.0
02/06/2023,00:24:29,0.001,0.0,0.0,0.0
02/06/2023,00:25:29,0.000,0.0,0.0,0.0
02/06/2023,00:26:29,-0.000,0.0,0.0,0.0
02/06/2023,00:27:28,0.000,0.0,0.0,0.0
02/06/2023,00:28:28,0.001,0.0,0.0,0.0
02/06/2023,00:29:58,0.000,0.0,0.0,0.0
02/06/2023,00:31:29,0.000,0.0,0.0,0.0
02/06/2023,00:32:29,0.000,0.0,0.0,0.0
02/06/2023,00:33:29,0.000,0.0,0.0,0.0
02/06/2023,00:34:29,-0.001,0.0,0.0,0.0
02/06/2023,00:35:29,0.000,0.0,0.0,0.0
02/06/2023,00:36:33,0.000,0.0,0.0,0.0
02/06/2023,00:37:30,0.001,0.0,0.0,0.0
02/06/2023,00:38:29,0.000,0.0,0.0,0.0
02/06/2023,00:39:29,0.000,0.0,0.0,0.0
02/06/2023,00:40:28,0.000,0.0,0.0,0.0
02/06/2023,00:41:28,0.000,0.0,0.0,0.0
02/06/2023,00:42:29,0.000,0.0,0.0,0.0
02/06/2023,00:43:28,0.000,0.0,0.0,0.0
02/06/2023,00:44:29,0.001,0.0,0.0,0.0
02/06/2023,00:45:28,0.000,0.0,0.0,0.0
02/06/2023,00:46:29,0.000,0.0,0.0,0.0
02/06/2023,00:47:29,0.000,0.0,0.0,0.0
02/06/2023,00:48:28,-0.001,0.0,0.0,0.0
02/06/2023,00:49:29,0.000,0.0,0.0,0.0
02/06/2023,00:50:29,-0.001,0.0,0.0,0.0
02/06/2023,00:51:29,-0.001,0.0,0.0,0.0
02/06/2023,00:52:29,0.000,0.0,0.0,0.0
02/06/2023,00:53:28,0.000,0.0,0.0,0.0
02/06/2023,00:54:29,0.000,0.0,0.0,0.0
02/06/2023,00:55:29,-0.000,0.0,0.0,0.0
02/06/2023,00:56:29,0.000,0.0,0.0,0.0
02/06/2023,00:57:28,0.000,0.0,0.0,0.0
02/06/2023,00:58:28,0.000,0.0,0.0,0.0
02/06/2023,00:59:29,0.001,0.0,0.0,0.0
02/06/2023,01:00:29,-0.000,0.0,0.0,0.0
02/06/2023,01:01:29,-0.001,0.0,0.0,0.0
02/06/2023,01:02:29,0.000,0.0,0.0,0.0
02/06/2023,01:03:29,0.000,0.0,0.0,0.0
02/06/2023,01:04:28,-0.000,0.0,0.0,0.0
02/06/2023,01:05:29,-0.001,0.0,0.0,0.0
02/06/2023,01:06:29,0.000,0.0,0.0,0.0
02/06/2023,01:07:29,0.000,0.0,0.0,0.0
02/06/2023,01:08:28,0.001,0.0,0.0,0.0
02/06/2023,01:09:29,0.001,0.0,0.0,0.0
02/06/2023,01:10:29,0.001,0.0,0.0,0.0
02/06/2023,01:11:28,-0.000,0.0,0.0,0.0
02/06/2023,01:12:29,0.000,0.0,0.0,0.0
02/06/2023,01:13:29,0.000,0.0,0.0,0.0
02/06/2023,01:14:29,0.000,0.0,0.0,0.0
02/06/2023,01:15:29,0.000,0.0,0.0,0.0
02/06/2023,01:16:28,-0.000,0.0,0.0,0.0
02/06/2023,01:17:29,0.000,0.0,0.0,0.0
02/06/2023,01:18:29,0.001,0.0,0.0,0.0
02/06/2023,01:19:29,0.001,0.0,0.0,0.0
02/06/2023,01:20:29,0.000,0.0,0.0,0.0
02/06/2023,01:21:28,-0.000,0.0,0.0,0.0
02/06/2023,01:22:29,0.001,0.0,0.0,0.0
02/06/2023,01:23:28,0.000,0.0,0.0,0.0
02/06/2023,01:24:29,0.000,0.0,0.0,0.0
02/06/2023,01:25:29,0.000,0.0,0.0,0.0
02/06/2023,01:26:29,-0.001,0.0,0.0,0.0
02/06/2023,01:27:29,0.000,0.0,0.0,0.0
02/06/2023,01:28:29,-0.001,0.0,0.0,0.0
02/06/2023,01:29:29,0.000,0.0,0.0,0.0
02/06/2023,01:30:28,-0.001,0.0,0.0,0.0
02/06/2023,01:31:29,-0.001,0.0,0.0,0.0
02/06/2023,01:32:28,0.000,0.0,0.0,0.0
02/06/2023,01:33:29,0.001,0.0,0.0,0.0
02/06/2023,01:34:30,0.000,0.0,0.0,0.0
02/06/2023,01:35:29,-0.001,0.0,0.0,0.0
02/06/2023,01:36:29,0.000,0.0,0.0,0.0
02/06/2023,01:37:28,0.000,0.0,0.0,0.0
02/06/2023,01:38:29,0.000,0.0,0.0,0.0
02/06/2023,01:39:29,0.000,0.0,0.0,0.0
02/06/2023,01:40:29,-0.001,0.0,0.0,0.0
02/06/2023,01:41:26,0.000,0.0,0.0,0.0
02/06/2023,01:42:29,0.001,0.0,0.0,0.0
02/06/2023,01:43:29,0.001,0.0,0.0,0.0
02/06/2023,01:44:29,0.000,0.0,0.0,0.0
02/06/2023,01:45:28,0.001,0.0,0.0,0.0
02/06/2023,01:46:29,0.000,0.0,0.0,0.0
02/06/2023,01:47:29,-0.001,0.0,0.0,0.0
02/06/2023,01:48:29,0.001,0.0,0.0,0.0
02/06/2023,01:49:29,0.000,0.0,0.0,0.0
02/06/2023,01:50:28,0.000,0.0,0.0,0.0
02/06/2023,01:51:29,0.000,0.0,0.0,0.0
02/06/2023,01:52:29,0.000,0.0,0.0,0.0
02/06/2023,01:53:29,-0.001,0.0,0.0,0.0
02/06/2023,01:54:29,-0.000,0.0,0.0,0.0
02/06/2023,01:55:29,0.000,0.0,0.0,0.0
02/06/2023,01:56:29,0.000,0.0,0.0,0.0
02/06/2023,01:57:28,0.000,0.0,0.0,0.0
02/06/2023,01:58:29,0.001,0.0,0.0,0.0
02/06/2023,01:59:29,0.001,0.0,0.0,0.0
02/06/2023,02:00:29,0.001,0.0,0.0,0.0
02/06/2023,02:01:29,0.001,0.0,0.0,0.0
02/06/2023,02:02:29,0.000,0.0,0.0,0.0
02/06/2023,02:03:29,0.000,0.0,0.0,0.0
02/06/2023,02:04:29,-0.000,0.0,0.0,0.0
02/06/2023,02:05:29,0.000,0.0,0.0,0.0
02/06/2023,02:06:29,0.000,0.0,0.0,0.0
02/06/2023,02:07:29,0.001,0.0,0.0,0.0
02/06/2023,02:08:29,-0.000,0.0,0.0,0.0
02/06/2023,02:09:29,0.000,0.0,0.0,0.0
02/06/2023,02:10:29,0.000,0.0,0.0,0.0
02/06/2023,02:11:29,0.001,0.0,0.0,0.0
02/06/2023,02:12:29,0.001,0.0,0.0,0.0
02/06/2023,02:13:29,-0.001,0.0,0.0,0.0
02/06/2023,02:14:29,-0.000,0.0,0.0,0.0
02/06/2023,02:15:29,0.000,0.0,0.0,0.0
02/06/2023,02:16:29,0.001,0.0,0.0,0.0
02/06/2023,02:17:28,0.000,0.0,0.0,0.0
02/06/2023,02:18:51,-0.001,0.0,0.0,0.0
02/06/2023,02:20:29,-0.001,0.0,0.0,0.0
02/06/2023,02:21:29,-0.001,0.0,0.0,0.0
02/06/2023,02:22:29,0.001,0.0,0.0,0.0
02/06/2023,02:23:28,0.000,0.0,0.0,0.0
02/06/2023,02:24:29,0.000,0.0,0.0,0.0
02/06/2023,02:25:30,0.000,0.0,0.0,0.0
02/06/2023,02:26:28,0.000,0.0,0.0,0.0
02/06/2023,02:27:28,0.000,0.0,0.0,0.0
02/06/2023,02:28:29,-0.001,0.0,0.0,0.0
02/06/2023,02:29:29,0.000,0.0,0.0,0.0
02/06/2023,02:30:29,0.000,0.0,0.0,0.0
02/06/2023,02:31:29,0.000,0.0,0.0,0.0
02/06/2023,02:32:29,0.000,0.0,0.0,0.0
02/06/2023,02:33:29,0.000,0.0,0.0,0.0
02/06/2023,02:34:29,0.000,0.0,0.0,0.0
02/06/2023,02:35:28,0.001,0.0,0.0,0.0
02/06/2023,02:36:29,0.000,0.0,0.0,0.0
02/06/2023,02:37:29,0.001,0.0,0.0,0.0
02/06/2023,02:38:29,-0.001,0.0,0.0,0.0
02/06/2023,02:39:29,0.001,0.0,0.0,0.0
02/06/2023,02:40:29,0.000,0.0,0.0,0.0
02/06/2023,02:41:29,-0.000,0.0,0.0,0.0
02/06/2023,02:42:29,0.000,0.0,0.0,0.0
02/06/2023,02:43:29,0.000,0.0,0.0,0.0
02/06/2023,02:44:29,0.000,0.0,0.0,0.0
02/06/2023,02:45:28,-0.001,0.0,0.0,0.0
02/06/2023,02:46:29,0.000,0.0,0.0,0.0
02/06/2023,02:47:29,0.000,0.0,0.0,0.0
02/06/2023,02:48:29,-0.000,0.0,0.0,0.0
02/06/2023,02:49:29,0.000,0.0,0.0,0.0
02/06/2023,02:50:28,0.000,0.0,0.0,0.0
02/06/2023,02:51:29,0.000,0.0,0.0,0.0
02/06/2023,02:52:29,-0.000,0.0,0.0,0.0
02/06/2023,02:53:29,0.000,0.0,0.0,0.0
02/06/2023,02:54:29,0.000,0.0,0.0,0.0
02/06/2023,02:55:28,0.000,0.0,0.0,0.0
02/06/2023,02:56:29,0.000,0.0,0.0,0.0
02/06/2023,02:57:29,-0.001,0.0,0.0,0.0
02/06/2023,02:58:29,0.000,0.0,0.0,0.0
02/06/2023,02:59:31,-0.000,0.0,0.0,0.0
02/06/2023,03:00:29,0.000,0.0,0.0,0.0
02/06/2023,03:01:28,0.000,0.0,0.0,0.0
02/06/2023,03:02:29,0.000,0.0,0.0,0.0
02/06/2023,03:03:28,0.000,0.0,0.0,0.0
02/06/2023,03:04:29,0.000,0.0,0.0,0.0
02/06/2023,03:05:28,0.000,0.0,0.0,0.0
02/06/2023,03:06:29,0.001,0.0,0.0,0.0
02/06/2023,03:07:30,-0.001,0.0,0.0,0.0
02/06/2023,03:08:29,0.000,0.0,0.0,0.0
02/06/2023,03:09:29,-0.001,0.0,0.0,0.0
02/06/2023,03:10:29,-0.001,0.0,0.0,0.0
02/06/2023,03:11:28,-0.001,0.0,0.0,0.0
02/06/2023,03:12:29,0.000,0.0,0.0,0.0
02/06/2023,03:13:29,0.000,0.0,0.0,0.0
02/06/2023,03:14:29,0.000,0.0,0.0,0.0
02/06/2023,03:15:29,0.000,0.0,0.0,0.0
02/06/2023,03:16:29,0.001,0.0,0.0,0.0
02/06/2023,03:17:29,0.000,0.0,0.0,0.0
02/06/2023,03:18:29,-0.000,0.0,0.0,0.0
02/06/2023,03:19:29,0.000,0.0,0.0,0.0
02/06/2023,03:20:29,0.000,0.0,0.0,0.0
02/06/2023,03:21:29,0.000,0.0,0.0,0.0
02/06/2023,03:22:29,0.000,0.0,0.0,0.0
02/06/2023,03:23:29,0.000,0.0,0.0,0.0
02/06/2023,03:24:29,-0.000,0.0,0.0,0.0
02/06/2023,03:25:29,0.000,0.0,0.0,0.0
02/06/2023,03:26:29,0.000,0.0,0.0,0.0
02/06/2023,03:27:29,0.001,0.0,0.0,0.0
02/06/2023,03:28:29,-0.000,0.0,0.0,0.0
02/06/2023,03:29:29,0.001,0.0,0.0,0.0
02/06/2023,03:30:29,-0.001,0.0,0.0,0.0
02/06/2023,03:31:29,0.000,0.0,0.0,0.0
02/06/2023,03:32:29,0.001,0.0,0.0,0.0
02/06/2023,03:33:29,0.000,0.0,0.0,0.0
02/06/2023,03:34:30,0.000,0.0,0.0,0.0
02/06/2023,03:35:29,0.001,0.0,0.0,0.0
02/06/2023,03:36:29,0.001,0.0,0.0,0.0
02/06/2023,03:37:29,-0.001,0.0,0.0,0.0
02/06/2023,03:38:29,0.001,0.0,0.0,0.0
02/06/2023,03:39:29,0.001,0.0,0.0,0.0
02/06/2023,03:40:29,-0.000,0.0,0.0,0.0
02/06/2023,03:41:30,0.001,0.0,0.0,0.0
02/06/2023,03:42:28,0.001,0.0,0.0,0.0
02/06/2023,03:43:29,0.001,0.0,0.0,0.0
02/06/2023,03:44:30,0.001,0.0,0.0,0.0
02/06/2023,03:45:30,0.002,0.0,0.0,0.0
02/06/2023,03:46:29,0.001,0.0,0.0,0.0
02/06/2023,03:47:29,0.000,0.0,0.0,0.0
02/06/2023,03:48:29,0.000,0.0,0.0,0.0
02/06/2023,03:49:30,-0.000,0.0,0.0,0.0
02/06/2023,03:50:29,0.002,0.0,0.0,0.0
02/06/2023,03:51:29,0.001,0.0,0.0,0.0
02/06/2023,03:52:29,0.000,0.0,0.0,0.0
02/06/2023,03:53:29,0.000,0.0,0.0,0.0
02/06/2023,03:54:29,0.001,0.0,0.0,0.0
02/06/2023,03:55:29,0.001,0.0,0.0,0.0
02/06/2023,03:56:29,0.001,0.0,0.0,0.0
02/06/2023,03:57:29,0.001,0.0,0.0,0.0
02/06/2023,03:58:29,0.001,0.0,0.0,0.0
02/06/2023,03:59:29,0.001,0.0,0.0,0.0
02/06/2023,04:00:29,0.001,0.0,0.0,0.0
02/06/2023,04:01:29,0.001,0.0,0.0,0.0
02/06/2023,04:02:29,0.002,0.0,0.0,0.0
02/06/2023,04:03:29,0.001,0.0,0.0,0.0
02/06/2023,04:04:29,0.002,0.0,0.0,0.0
02/06/2023,04:05:29,0.002,0.0,0.0,0.0
02/06/2023,04:06:29,0.002,0.0,0.0,0.0
02/06/2023,04:07:29,0.002,0.0,0.0,0.0
02/06/2023,04:08:29,0.002,0.0,0.0,0.0
02/06/2023,04:09:29,0.002,0.0,0.0,0.0
02/06/2023,04:10:29,0.002,0.0,0.0,0.0
02/06/2023,04:11:29,0.003,0.0,0.0,0.0
02/06/2023,04:12:30,0.003,0.0,0.0,0.0
02/06/2023,04:13:29,0.003,0.0,0.0,0.0
02/06/2023,04:14:29,0.004,0.0,0.0,0.0
02/06/2023,04:15:29,0.003,0.0,0.0,0.0
02/06/2023,04:16:30,0.003,0.0,0.0,0.0
02/06/2023,04:17:28,0.003,0.0,0.0,0.0
02/06/2023,04:18:29,0.003,0.0,0.0,0.0
02/06/2023,04:19:29,0.003,0.0,0.0,0.0
02/06/2023,04:20:29,0.003,0.0,0.0,0.0
02/06/2023,04:21:30,0.005,0.0,0.0,0.0
02/06/2023,04:22:29,0.005,0.0,0.0,0.0
02/06/2023,04:23:30,0.004,0.0,0.0,0.0
02/06/2023,04:24:29,0.003,0.0,0.0,0.0
02/06/2023,04:25:29,0.003,0.0,0.0,0.0
02/06/2023,04:26:29,0.005,0.0,0.0,0.0
02/06/2023,04:27:29,0.005,0.0,0.0,0.0
02/06/2023,04:28:31,0.005,0.0,0.0,0.0
02/06/2023,04:29:29,0.005,0.0,0.0,0.0
02/06/2023,04:30:29,0.005,0.0,0.0,0.0
02/06/2023,04:31:29,0.005,0.0,0.0,0.0
02/06/2023,04:32:30,0.004,0.0,0.0,0.0
02/06/2023,04:33:30,0.004,0.0,0.0,0.0
02/06/2023,04:34:29,0.005,0.0,0.0,0.0
02/06/2023,04:35:29,0.005,0.0,0.0,0.0
02/06/2023,04:36:29,0.006,0.0,0.0,0.0
02/06/2023,04:37:29,0.006,0.0,0.0,0.0
02/06/2023,04:38:29,0.006,0.0,0.0,0.0
02/06/2023,04:39:29,0.006,0.0,0.0,0.0
02/06/2023,04:40:29,0.007,0.0,0.0,0.0
02/06/2023,04:41:29,0.007,0.0,0.001,0.001
02/06/2023,04:42:29,0.007,0.0,0.001,0.0
02/06/2023,04:43:29,0.007,0.0,0.001,0.0
02/06/2023,04:44:29,0.008,0.0,0.001,0.0
02/06/2023,04:45:29,0.009,0.0,0.001,0.0
02/06/2023,04:46:29,0.010,0.0,0.001,0.0
02/06/2023,04:47:29,0.009,0.0,0.001,0.0
02/06/2023,04:48:29,0.009,0.0,0.002,0.001
02/06/2023,04:49:29,0.009,0.0,0.002,0.0
02/06/2023,04:50:29,0.010,0.0,0.002,0.0
02/06/2023,04:51:29,0.010,0.0,0.002,0.0
02/06/2023,04:52:29,0.010,0.0,0.002,0.0
02/06/2023,04:53:28,0.011,0.0,0.002,0.0
02/06/2023,04:54:29,0.011,0.0,0.003,0.001
02/06/2023,04:55:29,0.011,0.0,0.003,0.0
02/06/2023,04:56:29,0.012,0.0,0.003,0.0
02/06/2023,04:57:29,0.012,0.0,0.003,0.0
02/06/2023,04:58:30,0.013,0.0,0.003,0.0
02/06/2023,04:59:29,0.012,0.0,0.004,0.001
02/06/2023,05:00:30,0.013,0.0,0.004,0.0
02/06/2023,05:01:29,0.013,0.0,0.004,0.0
02/06/2023,05:02:30,0.013,0.0,0.004,0.0
02/06/2023,05:03:30,0.014,0.0,0.004,0.0
02/06/2023,05:04:29,0.015,0.0,0.005,0.001
02/06/2023,05:05:29,0.016,0.0,0.005,0.0
02/06/2023,05:06:30,0.017,0.0,0.005,0.0
02/06/2023,05:07:29,0.017,0.0,0.005,0.0
02/06/2023,05:08:30,0.017,0.0,0.006,0.001
02/06/2023,05:09:29,0.016,0.0,0.006,0.0
02/06/2023,05:10:29,0.017,0.0,0.006,0.0
02/06/2023,05:11:29,0.018,0.0,0.007,0.001
02/06/2023,05:12:30,0.019,0.0,0.007,0.0
02/06/2023,05:13:29,0.020,0.0,0.007,0.0
02/06/2023,05:14:29,0.021,0.0,0.008,0.001
02/06/2023,05:15:29,0.021,0.0,0.008,0.0
02/06/2023,05:16:30,0.021,0.0,0.008,0.0
02/06/2023,05:17:29,0.022,0.0,0.009,0.001
02/06/2023,05:18:29,0.022,0.0,0.009,0.0
02/06/2023,05:19:29,0.023,0.0,0.009,0.0
02/06/2023,05:20:29,0.023,0.0,0.01,0.001
02/06/2023,05:21:30,0.023,0.0,0.01,0.0
02/06/2023,05:22:29,0.023,0.0,0.011,0.001
02/06/2023,05:23:29,0.025,0.0,0.011,0.0
02/06/2023,05:24:30,0.023,0.0,0.011,0.0
02/06/2023,05:25:29,0.024,0.0,0.012,0.001
02/06/2023,05:26:30,0.026,0.0,0.012,0.0
02/06/2023,05:27:29,0.027,0.0,0.013,0.001
02/06/2023,05:28:30,0.027,0.0,0.013,0.0
02/06/2023,05:29:29,0.028,0.0,0.013,0.0
02/06/2023,05:30:30,0.027,0.0,0.014,0.001
02/06/2023,05:31:30,0.028,0.0,0.014,0.0
02/06/2023,05:32:29,0.029,0.0,0.015,0.001
02/06/2023,05:33:30,0.029,0.0,0.015,0.0
02/06/2023,05:34:29,0.029,0.0,0.016,0.001
02/06/2023,05:35:29,0.030,0.0,0.016,0.0
02/06/2023,05:36:30,0.033,0.0,0.017,0.001
02/06/2023,05:37:29,0.035,0.0,0.017,0.0
02/06/2023,05:38:30,0.036,0.0,0.018,0.001
02/06/2023,05:39:29,0.037,0.0,0.019,0.001
02/06/2023,05:40:29,0.036,0.0,0.019,0.0
02/06/2023,05:41:30,0.038,0.0,0.02,0.001
02/06/2023,05:42:30,0.038,0.0,0.02,0.0
02/06/2023,05:43:29,0.037,0.0,0.021,0.001
02/06/2023,05:44:29,0.038,0.0,0.022,0.001
02/06/2023,05:45:29,0.039,0.0,0.022,0.0
02/06/2023,05:46:29,0.041,0.0,0.023,0.001
02/06/2023,05:47:29,0.043,0.0,0.024,0.001
02/06/2023,05:48:29,0.042,0.0,0.024,0.0
02/06/2023,05:49:29,0.045,0.0,0.025,0.001
02/06/2023,05:50:29,0.047,0.0,0.026,0.001
02/06/2023,05:51:31,0.046,0.0,0.027,0.001
02/06/2023,05:52:29,0.046,0.0,0.027,0.0
02/06/2023,05:53:29,0.047,0.0,0.028,0.001
02/06/2023,05:54:30,0.048,0.0,0.029,0.001
02/06/2023,05:55:29,0.050,0.0,0.03,0.001
02/06/2023,05:56:29,0.050,0.0,0.031,0.001
02/06/2023,05:57:29,0.051,0.0,0.032,0.001
02/06/2023,05:58:30,0.052,0.0,0.032,0.0
02/06/2023,05:59:29,0.053,0.0,0.033,0.001
02/06/2023,06:00:29,0.055,0.0,0.034,0.001
02/06/2023,06:01:29,0.058,0.0,0.035,0.001
02/06/2023,06:02:30,0.059,0.0,0.036,0.001
02/06/2023,06:03:29,0.060,0.0,0.037,0.001
02/06/2023,06:04:29,0.061,0.0,0.038,0.001
02/06/2023,06:05:29,0.062,0.0,0.039,0.001
02/06/2023,06:06:29,0.063,0.0,0.04,0.001
02/06/2023,06:07:29,0.065,0.0,0.041,0.001
02/06/2023,06:08:30,0.066,0.0,0.042,0.001
02/06/2023,06:09:29,0.069,0.0,0.043,0.001
02/06/2023,06:10:30,0.070,0.0,0.045,0.002
02/06/2023,06:11:29,0.072,0.0,0.046,0.001
02/06/2023,06:12:29,0.074,0.0,0.047,0.001
02/06/2023,06:13:29,0.074,0.0,0.048,0.001
02/06/2023,06:14:29,0.077,0.0,0.049,0.001
02/06/2023,06:15:30,0.078,0.0,0.051,0.002
02/06/2023,06:16:29,0.080,0.0,0.052,0.001
02/06/2023,06:17:29,0.083,0.0,0.053,0.001
02/06/2023,06:18:29,0.085,0.0,0.055,0.002
02/06/2023,06:19:29,0.089,0.0,0.056,0.001
02/06/2023,06:20:30,0.091,0.0,0.058,0.002
02/06/2023,06:21:29,0.090,0.0,0.059,0.001
02/06/2023,06:22:29,0.091,0.0,0.061,0.002
02/06/2023,06:23:29,0.092,0.0,0.062,0.001
02/06/2023,06:24:30,0.094,0.0,0.064,0.002
02/06/2023,06:25:29,0.092,0.0,0.065,0.001
02/06/2023,06:26:29,0.094,0.0,0.067,0.002
02/06/2023,06:27:29,0.097,0.0,0.069,0.002
02/06/2023,06:28:29,0.099,0.0,0.07,0.001
02/06/2023,06:29:30,0.102,0.0,0.072,0.002
02/06/2023,06:30:30,0.105,0.0,0.074,0.002
02/06/2023,06:31:29,0.112,0.0,0.075,0.001
02/06/2023,06:32:29,0.112,0.0,0.077,0.002
02/06/2023,06:33:29,0.112,0.0,0.079,0.002
02/06/2023,06:34:30,0.110,0.0,0.081,0.002
02/06/2023,06:35:29,0.112,0.0,0.083,0.002
02/06/2023,06:36:30,0.113,0.0,0.085,0.002
02/06/2023,06:37:29,0.114,0.0,0.087,0.002
02/06/2023,06:38:30,0.114,0.0,0.088,0.001
02/06/2023,06:39:30,0.121,0.0,0.09,0.002
02/06/2023,06:40:29,0.125,0.0,0.092,0.002
02/06/2023,06:41:29,0.126,0.0,0.095,0.003
02/06/2023,06:42:29,0.124,0.0,0.097,0.002
02/06/2023,06:43:29,0.125,0.0,0.099,0.002
02/06/2023,06:44:29,0.126,0.0,0.101,0.002
02/06/2023,06:45:29,0.129,0.0,0.103,0.002
02/06/2023,06:46:30,0.129,0.0,0.105,0.002
02/06/2023,06:47:29,0.130,0.0,0.107,0.002
02/06/2023,06:48:30,0.134,0.0,0.109,0.002
02/06/2023,06:49:29,0.141,0.0,0.112,0.003
02/06/2023,06:50:30,0.142,0.0,0.114,0.002
02/06/2023,06:51:30,0.140,0.0,0.116,0.002
02/06/2023,06:52:30,0.137,0.0,0.119,0.003
02/06/2023,06:53:30,0.138,0.0,0.121,0.002
02/06/2023,06:54:30,0.146,0.0,0.123,0.002
02/06/2023,06:55:29,0.152,0.0,0.126,0.003
02/06/2023,06:56:29,0.155,0.0,0.129,0.003
02/06/2023,06:57:29,0.156,0.0,0.131,0.002
02/06/2023,06:58:30,0.159,0.0,0.134,0.003
02/06/2023,06:59:29,0.161,0.0,0.136,0.002
02/06/2023,07:00:29,0.159,0.0,0.139,0.003
02/06/2023,07:01:29,0.154,0.0,0.142,0.003
02/06/2023,07:02:30,0.158,0.0,0.144,0.002
02/06/2023,07:03:30,0.162,0.0,0.147,0.003
02/06/2023,07:04:29,0.159,0.0,0.15,0.003
02/06/2023,07:05:29,0.156,0.0,0.152,0.002
02/06/2023,07:06:29,0.158,0.0,0.155,0.003
02/06/2023,07:07:30,0.162,0.0,0.158,0.003
02/06/2023,07:08:29,0.165,0.0,0.16,0.002
02/06/2023,07:09:29,0.168,0.0,0.163,0.003
02/06/2023,07:10:30,0.170,0.0,0.166,0.003
02/06/2023,07:11:29,0.172,0.0,0.169,0.003
02/06/2023,07:12:30,0.172,0.0,0.172,0.003
02/06/2023,07:13:29,0.173,0.0,0.174,0.002
02/06/2023,07:14:30,0.173,0.0,0.177,0.003
02/06/2023,07:15:30,0.172,0.0,0.18,0.003
02/06/2023,07:16:29,0.174,0.0,0.183,0.003
02/06/2023,07:17:29,0.180,0.0,0.186,0.003
02/06/2023,07:18:30,0.192,0.0,0.189,0.003
02/06/2023,07:19:29,0.206,0.0,0.192,0.003
02/06/2023,07:20:28,0.210,0.0,0.196,0.004
02/06/2023,07:21:54,0.213,0.0,0.201,0.005
02/06/2023,07:23:30,0.228,1.0,0.207,0.006
02/06/2023,07:24:29,0.239,1.0,0.21,0.003
02/06/2023,07:25:30,0.241,1.0,0.214,0.004
02/06/2023,07:26:30,0.236,1.0,0.218,0.004
02/06/2023,07:27:30,0.233,1.0,0.222,0.004
02/06/2023,07:28:30,0.235,1.0,0.226,0.004
02/06/2023,07:29:29,0.236,1.0,0.23,0.004
02/06/2023,07:30:29,0.236,1.0,0.234,0.004
02/06/2023,07:31:29,0.237,1.0,0.238,0.004
02/06/2023,07:32:30,0.236,1.0,0.242,0.004
02/06/2023,07:33:29,0.237,1.0,0.246,0.004
02/06/2023,07:34:29,0.242,1.0,0.25,0.004
02/06/2023,07:35:30,0.254,1.0,0.254,0.004
02/06/2023,07:36:29,0.266,1.0,0.258,0.004
02/06/2023,07:37:30,0.263,1.0,0.263,0.005
02/06/2023,07:38:29,0.259,1.0,0.267,0.004
02/06/2023,07:39:30,0.265,1.0,0.272,0.005
02/06/2023,07:40:30,0.276,1.0,0.276,0.004
02/06/2023,07:41:29,0.279,1.0,0.281,0.005
02/06/2023,07:42:30,0.280,1.0,0.285,0.004
02/06/2023,07:43:30,0.283,1.0,0.29,0.005
02/06/2023,07:44:30,0.290,1.0,0.295,0.005
02/06/2023,07:45:30,0.290,1.0,0.3,0.005
02/06/2023,07:46:29,0.282,1.0,0.304,0.004
02/06/2023,07:47:29,0.287,1.0,0.309,0.005
02/06/2023,07:48:30,0.304,1.0,0.314,0.005
02/06/2023,07:49:29,0.315,1.0,0.319,0.005
02/06/2023,07:50:29,0.319,1.0,0.325,0.006
02/06/2023,07:51:30,0.318,1.0,0.33,0.005
02/06/2023,07:52:29,0.317,1.0,0.335,0.005
02/06/2023,07:53:30,0.318,1.0,0.34,0.005
02/06/2023,07:54:30,0.323,1.0,0.346,0.006
02/06/2023,07:55:29,0.337,1.0,0.351,0.005
02/06/2023,07:56:30,0.343,1.0,0.357,0.006
02/06/2023,07:57:30,0.339,1.0,0.363,0.006
02/06/2023,07:58:29,0.340,1.0,0.368,0.005
02/06/2023,07:59:30,0.348,1.0,0.374,0.006
02/06/2023,08:00:30,0.356,1.0,0.38,0.006
02/06/2023,08:01:29,0.355,1.0,0.386,0.006
02/06/2023,08:02:30,0.347,1.0,0.392,0.006
02/06/2023,08:03:29,0.337,1.0,0.397,0.005
02/06/2023,08:04:29,0.330,1.0,0.403,0.006
02/06/2023,08:05:58,0.314,1.0,0.411,0.008
02/06/2023,08:07:30,0.309,1.0,0.419,0.008
02/06/2023,08:08:29,0.312,1.0,0.424,0.005
02/06/2023,08:09:30,0.317,1.0,0.429,0.005
02/06/2023,08:10:30,0.326,1.0,0.434,0.005
02/06/2023,08:11:29,0.339,1.0,0.44,0.006
02/06/2023,08:12:29,0.346,1.0,0.446,0.006
02/06/2023,08:13:29,0.358,1.0,0.452,0.006
02/06/2023,08:14:30,0.379,1.0,0.458,0.006
02/06/2023,08:15:30,0.405,1.0,0.464,0.006
02/06/2023,08:16:29,0.423,1.0,0.471,0.007
02/06/2023,08:17:30,0.430,1.0,0.478,0.007
02/06/2023,08:18:29,0.437,1.0,0.486,0.008
02/06/2023,08:19:30,0.432,1.0,0.493,0.007
02/06/2023,08:20:30,0.410,1.0,0.5,0.007
02/06/2023,08:21:29,0.395,1.0,0.507,0.007
02/06/2023,08:22:30,0.394,1.0,0.513,0.006
02/06/2023,08:23:29,0.392,1.0,0.519,0.006
02/06/2023,08:24:30,0.381,1.0,0.526,0.007
02/06/2023,08:25:29,0.380,1.0,0.532,0.006
02/06/2023,08:26:29,0.396,1.0,0.539,0.007
02/06/2023,08:27:30,0.414,1.0,0.546,0.007
02/06/2023,08:28:30,0.411,1.0,0.553,0.007
02/06/2023,08:29:30,0.402,1.0,0.559,0.006
02/06/2023,08:30:29,0.395,1.0,0.566,0.007
02/06/2023,08:31:29,0.390,1.0,0.572,0.006
02/06/2023,08:32:29,0.388,1.0,0.579,0.007
02/06/2023,08:33:30,0.394,1.0,0.585,0.006
02/06/2023,08:34:29,0.406,1.0,0.592,0.007
02/06/2023,08:35:29,0.402,1.0,0.599,0.007
02/06/2023,08:36:30,0.396,1.0,0.606,0.007
02/06/2023,08:37:30,0.393,1.0,0.612,0.006
02/06/2023,08:38:30,0.397,1.0,0.619,0.007
02/06/2023,08:39:29,0.410,1.0,0.625,0.006
02/06/2023,08:40:30,0.422,1.0,0.632,0.007
02/06/2023,08:41:29,0.426,1.0,0.639,0.007
02/06/2023,08:42:30,0.427,1.0,0.647,0.008
02/06/2023,08:43:30,0.425,1.0,0.654,0.007
02/06/2023,08:44:29,0.427,1.0,0.661,0.007
02/06/2023,08:45:30,0.451,1.0,0.668,0.007
02/06/2023,08:46:30,0.487,1.0,0.676,0.008
02/06/2023,08:47:29,0.505,1.0,0.684,0.008
02/06/2023,08:48:30,0.503,1.0,0.693,0.009
02/06/2023,08:49:30,0.502,1.0,0.701,0.008
02/06/2023,08:50:29,0.511,1.0,0.709,0.008
02/06/2023,08:51:29,0.520,1.0,0.718,0.009
02/06/2023,08:52:30,0.535,1.0,0.727,0.009
02/06/2023,08:53:30,0.543,1.0,0.736,0.009
02/06/2023,08:54:29,0.553,1.0,0.745,0.009
02/06/2023,08:55:30,0.559,1.0,0.754,0.009
02/06/2023,08:56:29,0.557,1.0,0.763,0.009
02/06/2023,08:57:29,0.540,1.0,0.773,0.01
02/06/2023,08:58:30,0.524,1.0,0.782,0.009
02/06/2023,08:59:29,0.520,1.0,0.79,0.008
02/06/2023,09:00:29,0.523,1.0,0.799,0.009
02/06/2023,09:01:29,0.530,1.0,0.808,0.009
02/06/2023,09:02:29,0.532,1.0,0.817,0.009
02/06/2023,09:03:30,0.531,1.0,0.825,0.008
02/06/2023,09:04:29,0.539,1.0,0.834,0.009
02/06/2023,09:05:30,0.553,1.0,0.843,0.009
02/06/2023,09:06:29,0.568,1.0,0.853,0.01
02/06/2023,09:07:30,0.580,1.0,0.862,0.009
02/06/2023,09:08:29,0.586,1.0,0.872,0.01
02/06/2023,09:09:30,0.594,1.0,0.882,0.01
02/06/2023,09:10:29,0.610,1.0,0.892,0.01
02/06/2023,09:11:30,0.631,1.0,0.902,0.01
02/06/2023,09:12:29,0.636,1.0,0.913,0.011
02/06/2023,09:13:29,0.638,1.0,0.923,0.01
02/06/2023,09:14:30,0.654,2.0,0.934,0.011
02/06/2023,09:15:30,0.657,2.0,0.945,0.011
02/06/2023,09:16:30,0.636,1.0,0.956,0.011
02/06/2023,09:17:29,0.626,1.0,0.966,0.01
02/06/2023,09:18:30,0.640,1.0,0.977,0.011
02/06/2023,09:19:29,0.636,1.0,0.988,0.011
02/06/2023,09:20:30,0.625,1.0,0.998,0.01
02/06/2023,09:21:30,0.628,1.0,1.009,0.011
02/06/2023,09:22:29,0.629,1.0,1.019,0.01
02/06/2023,09:23:30,0.628,1.0,1.03,0.011
02/06/2023,09:24:29,0.644,1.0,1.04,0.01
02/06/2023,09:25:30,0.664,2.0,1.051,0.011
02/06/2023,09:26:30,0.673,2.0,1.062,0.011
02/06/2023,09:27:30,0.663,2.0,1.073,0.011
02/06/2023,09:28:29,0.675,2.0,1.084,0.011
02/06/2023,09:29:30,0.682,2.0,1.096,0.012
02/06/2023,09:30:28,0.681,2.0,1.107,0.011
02/06/2023,09:31:30,0.695,2.0,1.119,0.012
02/06/2023,09:32:29,0.701,2.0,1.13,0.011
02/06/2023,09:33:30,0.708,2.0,1.142,0.012
02/06/2023,09:34:29,0.704,2.0,1.154,0.012
02/06/2023,09:35:30,0.704,2.0,1.166,0.012
02/06/2023,09:36:29,0.708,2.0,1.177,0.011
02/06/2023,09:37:30,0.709,2.0,1.189,0.012
02/06/2023,09:38:29,0.712,2.0,1.201,0.012
02/06/2023,09:39:30,0.750,2.0,1.213,0.012
02/06/2023,09:40:29,0.814,2.0,1.226,0.013
02/06/2023,09:41:30,0.844,2.0,1.24,0.014
02/06/2023,09:42:29,0.885,2.0,1.254,0.014
02/06/2023,09:43:30,0.941,2.0,1.27,0.016
02/06/2023,09:44:30,0.890,2.0,1.284,0.014
02/06/2023,09:45:29,0.836,2.0,1.299,0.015
02/06/2023,09:46:29,0.808,2.0,1.312,0.013
02/06/2023,09:47:30,0.795,2.0,1.326,0.014
02/06/2023,09:48:29,0.795,2.0,1.339,0.013
02/06/2023,09:49:30,0.814,2.0,1.352,0.013
02/06/2023,09:50:29,0.836,2.0,1.366,0.014
02/06/2023,09:51:30,0.842,2.0,1.38,0.014
02/06/2023,09:52:30,0.841,2.0,1.394,0.014
02/06/2023,09:53:29,0.875,2.0,1.408,0.014
02/06/2023,09:54:30,0.891,2.0,1.423,0.015
02/06/2023,09:55:30,0.873,2.0,1.438,0.015
02/06/2023,09:56:29,0.866,2.0,1.452,0.014
02/06/2023,09:57:30,0.872,2.0,1.467,0.015
02/06/2023,09:58:29,0.898,2.0,1.482,0.015
02/06/2023,09:59:29,0.918,2.0,1.497,0.015
02/06/2023,10:00:29,0.933,2.0,1.512,0.015
02/06/2023,10:01:30,0.937,2.0,1.528,0.016
02/06/2023,10:02:30,0.932,2.0,1.543,0.015